Buffalo, MN

10:47 PM CST on December 06, 2019 (GMT -0600)
Buffalo

Weather History for KCFE - October, 2019

Change the Weather History Date:

Monday, October 7, 2019

  Actual Average (KMIC) Record (KMIC)
Temperature  
Mean Temperature 54 °F -  
Max Temperature 65 °F 61 °F 86 °F (2003)
Min Temperature 44 °F 38 °F 23 °F (2012)
Degree Days  
Heating Degree Days 10    
Growing Degree Days 4 (Base 50)    
Moisture  
Dew Point 40 °F    
Average Humidity 64    
Maximum Humidity 81    
Minimum Humidity 34    
Precipitation  
Precipitation 0.00 in - - ()
Sea Level Pressure  
Sea Level Pressure 30.10 in    
Wind  
Wind Speed - (North)    
Max Wind Speed -    
Max Gust Speed -    
Visibility 10 miles    
Events      
Averages and records for this station are not official NWS values.
T = Trace of Precipitation, MM = Missing Value Source: NWS Daily Summary

Daily Weather History Graph

Daily Weather History Graph

Search for Another Location

Airport or City:

Astronomy

Oct. 07, 2019 Rise Set
Actual Time 7:20 AM CDT 6:44 PM CDT
Civil Twilight 6:51 AM CDT 7:14 PM CDT
Nautical Twilight 6:17 AM CDT 7:48 PM CDT
Astronomical Twilight 5:42 AM CDT 8:22 PM CDT
Moon 4:25 PM CDT 12:54 AM CDT
Length of Visible Light 12h 23m
Length of Day
11h 24m
Waxing Gibbous, 69% of the Moon is Illuminated
Oct 7
Waxing Gibbous
Oct 13
Full
Oct 21
Last Quarter
Oct 27
New
Nov 4
First Quarter

Hourly Weather History & Observations

Time (CDT) Temp. Dew Point Humidity Pressure Visibility Wind Dir Wind Speed Gust Speed Precip Events Conditions
12:15 AM 52.3 °F 41.4 °F 66% 30.05 in 10.0 mi North - - N/A   Mostly Cloudy
12:16 AM 52.3 °F 41.2 °F 66% 30.05 in 10.0 mi North - - N/A   Overcast
12:35 AM 51.4 °F 41.4 °F 68% 30.05 in 10.0 mi North - - N/A   Scattered Clouds
12:55 AM 50.5 °F 41.5 °F 71% 30.05 in 10.0 mi North - - N/A   Clear
12:56 AM 50.5 °F 41.5 °F 71% 30.05 in 10.0 mi North - - N/A   Clear
1:15 AM 51.4 °F 41.7 °F 69% 30.06 in 10.0 mi North - - N/A   Mostly Cloudy
1:16 AM 51.4 °F 41.5 °F 69% 30.06 in 10.0 mi North - - N/A   Mostly Cloudy
1:35 AM 50.9 °F 41.2 °F 69% 30.06 in 10.0 mi North - - N/A   Scattered Clouds
1:55 AM 50.0 °F 41.0 °F 71% 30.06 in 10.0 mi North - - N/A   Clear
2:15 AM 48.9 °F 41.2 °F 75% 30.06 in 10.0 mi North - - N/A   Clear
2:16 AM 48.7 °F 41.2 °F 75% 30.06 in 10.0 mi North - - N/A   Clear
2:35 AM 48.4 °F 41.2 °F 76% 30.07 in 10.0 mi North - - N/A   Clear
2:55 AM 48.4 °F 41.0 °F 76% 30.07 in 10.0 mi North - - N/A   Clear
2:56 AM 48.2 °F 41.0 °F 76% 30.07 in 10.0 mi North - - N/A   Clear
3:15 AM 47.8 °F 41.0 °F 77% 30.08 in 10.0 mi North - - N/A   Clear
3:35 AM 46.9 °F 40.5 °F 78% 30.08 in 10.0 mi North - - N/A   Clear
3:55 AM 46.9 °F 40.8 °F 79% 30.09 in 10.0 mi North - - N/A   Clear
3:56 AM 46.9 °F 40.6 °F 79% 30.09 in 10.0 mi North - - N/A   Clear
4:15 AM 46.6 °F 40.5 °F 79% 30.09 in 10.0 mi North - - N/A   Clear
4:16 AM 46.6 °F 40.5 °F 79% 30.09 in 10.0 mi North - - N/A   Clear
4:35 AM 46.9 °F 40.5 °F 78% 30.10 in 10.0 mi North - - N/A   Clear
4:55 AM 46.6 °F 40.1 °F 78% 30.11 in 10.0 mi North - - N/A   Clear
5:15 AM 46.4 °F 39.9 °F 78% 30.11 in 10.0 mi North - - N/A   Clear
5:35 AM 46.2 °F 40.1 °F 79% 30.12 in 10.0 mi North - - N/A   Clear
5:36 AM 46.2 °F 40.1 °F 79% 30.12 in 10.0 mi North - - N/A   Clear
5:55 AM 45.5 °F 39.2 °F 79% 30.12 in 10.0 mi North - - N/A   Clear
6:15 AM 45.1 °F 39.2 °F 80% 30.13 in 10.0 mi North - - N/A   Clear
6:35 AM 44.8 °F 39.2 °F 81% 30.13 in 10.0 mi North - - N/A   Clear
6:55 AM 44.6 °F 39.0 °F 81% 30.13 in 10.0 mi North - - N/A   Clear
7:15 AM 44.8 °F 38.7 °F 79% 30.13 in 10.0 mi North - - N/A   Clear
7:16 AM 44.6 °F 38.7 °F 80% 30.13 in 10.0 mi North - - N/A   Clear
7:35 AM 44.6 °F 38.5 °F 79% 30.14 in 10.0 mi North - - N/A   Clear
7:36 AM 44.6 °F 38.5 °F 79% 30.13 in 10.0 mi North - - N/A   Clear
7:55 AM 44.6 °F 38.5 °F 79% 30.14 in 10.0 mi North - - N/A   Clear
8:15 AM 45.9 °F 39.2 °F 78% 30.14 in 10.0 mi North - - N/A   Clear
8:16 AM 45.9 °F 39.4 °F 78% 30.14 in 10.0 mi North - - N/A   Clear
8:35 AM 46.6 °F 39.4 °F 76% 30.15 in 10.0 mi North - - N/A   Clear
8:55 AM 47.8 °F 40.1 °F 75% 30.15 in 10.0 mi North - - N/A   Clear
9:15 AM 48.4 °F 40.5 °F 74% 30.16 in 10.0 mi North - - N/A   Clear
9:35 AM 49.6 °F 40.5 °F 71% 30.16 in 10.0 mi North - - N/A   Clear
9:55 AM 51.3 °F 41.0 °F 68% 30.17 in 10.0 mi North - - N/A   Clear
10:15 AM 52.2 °F 40.6 °F 65% 30.17 in 10.0 mi North - - N/A   Clear
10:16 AM 52.2 °F 40.8 °F 65% 30.17 in 10.0 mi North - - N/A   Clear
10:35 AM 53.2 °F 41.2 °F 64% 30.18 in 10.0 mi North - - N/A   Clear
10:55 AM 54.1 °F 41.0 °F 61% 30.18 in 10.0 mi North - - N/A   Clear
11:15 AM 55.6 °F 41.5 °F 59% 30.18 in 10.0 mi North - - N/A   Clear
11:35 AM 56.8 °F 41.9 °F 57% 30.18 in 10.0 mi North - - N/A   Clear
11:55 AM 58.1 °F 41.0 °F 53% 30.18 in 10.0 mi North - - N/A   Clear
12:15 PM 59.9 °F 41.7 °F 51% 30.17 in 10.0 mi North - - N/A   Clear
12:35 PM 60.8 °F 41.4 °F 49% 30.17 in 10.0 mi North - - N/A   Clear
12:55 PM 62.1 °F 41.5 °F 47% 30.16 in 10.0 mi North - - N/A   Clear
1:15 PM 62.1 °F 40.6 °F 45% 30.16 in 10.0 mi North - - N/A   Clear
1:35 PM 62.8 °F 39.7 °F 43% 30.15 in 10.0 mi North - - N/A   Clear
1:55 PM 63.5 °F 38.8 °F 40% 30.14 in 10.0 mi North - - N/A   Clear
1:56 PM 63.5 °F 38.8 °F 40% 30.14 in 10.0 mi North - - N/A   Clear
2:15 PM 64.0 °F 39.6 °F 41% 30.13 in 10.0 mi North - - N/A   Clear
2:35 PM 64.2 °F 38.3 °F 38% 30.12 in 10.0 mi North - - N/A   Clear
2:55 PM 64.2 °F 37.2 °F 37% 30.12 in 10.0 mi North - - N/A   Clear
3:15 PM 64.6 °F 38.7 °F 38% 30.11 in 10.0 mi North - - N/A   Clear
3:35 PM 65.5 °F 37.2 °F 35% 30.11 in 10.0 mi North - - N/A   Clear
3:55 PM 65.5 °F 37.4 °F 35% 30.11 in 10.0 mi North - - N/A   Clear
4:15 PM 65.5 °F 37.2 °F 35% 30.11 in 10.0 mi North - - N/A   Clear
4:35 PM 65.5 °F 36.1 °F 34% 30.10 in 10.0 mi North - - N/A   Clear
4:55 PM 65.1 °F 36.0 °F 34% 30.09 in 10.0 mi North - - N/A   Clear
4:56 PM 65.1 °F 36.5 °F 35% 30.09 in 10.0 mi North - - N/A   Clear
5:35 PM 63.7 °F 36.5 °F 36% 30.09 in 10.0 mi North - - N/A   Clear
5:55 PM 63.5 °F 37.6 °F 38% 30.08 in 10.0 mi North - - N/A   Clear
6:15 PM 62.4 °F 37.4 °F 40% 30.08 in 10.0 mi North - - N/A   Clear
6:35 PM 60.6 °F 38.5 °F 44% 30.07 in 10.0 mi North - - N/A   Clear
6:36 PM 60.4 °F 38.7 °F 45% 30.07 in 10.0 mi North - - N/A   Clear
6:55 PM 56.3 °F 41.4 °F 57% 30.07 in 10.0 mi North - - N/A   Clear
7:15 PM 53.6 °F 42.3 °F 65% 30.08 in 10.0 mi North - - N/A   Clear
7:35 PM 52.2 °F 42.6 °F 70% 30.08 in 10.0 mi North - - N/A   Clear
7:55 PM 51.4 °F 42.4 °F 71% 30.07 in 10.0 mi North - - N/A   Clear
7:56 PM 51.4 °F 42.4 °F 71% 30.07 in 10.0 mi North - - N/A   Clear
8:15 PM 50.5 °F 41.2 °F 70% 30.07 in 10.0 mi North - - N/A   Clear
8:16 PM 50.5 °F 41.2 °F 70% 30.07 in 10.0 mi North - - N/A   Clear
8:35 PM 51.1 °F 40.8 °F 68% 30.07 in 10.0 mi North - - N/A   Clear
8:36 PM 51.3 °F 40.8 °F 67% 30.07 in 10.0 mi North - - N/A   Clear
8:55 PM 51.4 °F 40.3 °F 66% 30.07 in 10.0 mi North - - N/A   Clear
9:15 PM 51.4 °F 40.3 °F 66% 30.07 in 10.0 mi North - - N/A   Clear
9:16 PM 51.4 °F 40.5 °F 66% 30.07 in 10.0 mi North - - N/A   Clear
9:35 PM 51.4 °F 40.3 °F 66% 30.06 in 10.0 mi North - - N/A   Clear
9:36 PM 51.3 °F 40.3 °F 66% 30.06 in 10.0 mi North - - N/A   Clear
9:55 PM 50.7 °F 39.9 °F 67% 30.06 in 10.0 mi North - - N/A   Clear
10:15 PM 51.4 °F 39.6 °F 64% 30.06 in 10.0 mi North - - N/A   Clear
10:35 PM 51.3 °F 39.6 °F 64% 30.06 in 10.0 mi North - - N/A   Clear
10:55 PM 50.5 °F 39.2 °F 65% 30.05 in 10.0 mi North - - N/A   Clear
10:56 PM 50.5 °F 39.2 °F 65% 30.05 in 10.0 mi North - - N/A   Clear
11:15 PM 50.4 °F 39.2 °F 66% 30.05 in 10.0 mi North - - N/A   Clear
11:16 PM 50.4 °F 39.2 °F 66% 30.05 in 10.0 mi North - - N/A   Clear
11:35 PM 50.0 °F 39.2 °F 66% 30.05 in 10.0 mi North - - N/A   Clear
11:36 PM 50.0 °F 39.2 °F 66% 30.05 in 10.0 mi North - - N/A   Clear
11:55 PM 50.4 °F 38.7 °F 64% 30.04 in 10.0 mi North - - N/A   Clear